timestamp,wind_dir_avg,wind_spd_avg,wind_spd_max_dir,wind_spd_gust,battery_voltage,lat,long
2024-01-07 00:04:00+00:00,314.0,8.35,309.0,12.45,12.25,47.59359,-54.27349
2024-01-07 00:14:00+00:00,311.0,10.0,311.0,12.25,12.25,47.59359,-54.27349
2024-01-07 00:24:00+00:00,310.0,9.65,309.0,11.87,12.25,47.59359,-54.27349
2024-01-07 00:34:00+00:00,297.0,10.25,298.0,12.75,12.25,47.59359,-54.27349
2024-01-07 00:44:00+00:00,314.0,8.65,310.0,13.3,12.25,47.59359,-54.27349
2024-01-07 00:54:00+00:00,299.0,10.06,305.0,13.79,12.25,47.59359,-54.27349
2024-01-07 01:04:00+00:00,313.0,11.33,316.0,13.55,12.25,47.59359,-54.27349
2024-01-07 01:14:00+00:00,315.0,13.33,317.0,15.18,12.17,47.59359,-54.27349
2024-01-07 01:24:00+00:00,306.0,13.49,308.0,17.36,12.17,47.59359,-54.27349
2024-01-07 01:34:00+00:00,314.0,12.65,314.0,14.95,12.17,47.59359,-54.27349
2024-01-07 01:44:00+00:00,305.0,14.52,302.0,19.73,12.17,47.59359,-54.27349
2024-01-07 01:54:00+00:00,309.0,13.72,299.0,18.36,12.17,47.59359,-54.27349
2024-01-07 02:04:00+00:00,310.0,13.38,309.0,18.97,12.17,47.59359,-54.27349
2024-01-07 02:14:00+00:00,307.0,14.18,303.0,19.88,12.17,47.59359,-54.27349
2024-01-07 02:24:00+00:00,314.0,13.87,321.0,17.2,12.17,47.59359,-54.27349
2024-01-07 02:34:00+00:00,309.0,12.84,309.0,16.55,12.17,47.59359,-54.27349
2024-01-07 02:44:00+00:00,300.0,13.69,298.0,18.1,12.17,47.59359,-54.27349
2024-01-07 02:54:00+00:00,313.0,13.04,324.0,16.19,12.17,47.59359,-54.27349
2024-01-07 03:04:00+00:00,305.0,11.39,306.0,13.67,12.17,47.59359,-54.27349
2024-01-07 03:14:00+00:00,305.0,12.97,294.0,17.87,12.17,47.59359,-54.27349
2024-01-07 03:24:00+00:00,312.0,13.13,307.0,15.96,12.17,47.59359,-54.27349
2024-01-07 03:34:00+00:00,310.0,13.51,303.0,19.04,12.17,47.59359,-54.27349
2024-01-07 03:44:00+00:00,313.0,13.24,320.0,17.68,12.17,47.59359,-54.27349
2024-01-07 03:54:00+00:00,316.0,14.62,304.0,20.36,12.17,47.59359,-54.27349
2024-01-07 04:04:00+00:00,313.0,13.0,321.0,16.29,12.17,47.59359,-54.27349
2024-01-07 04:14:00+00:00,316.0,15.99,314.0,20.24,12.09,47.59359,-54.27349
2024-01-07 04:24:00+00:00,314.0,14.29,319.0,16.95,12.09,47.59359,-54.27349
2024-01-07 04:34:00+00:00,308.0,12.12,320.0,17.83,12.09,47.59359,-54.27349
2024-01-07 04:44:00+00:00,319.0,12.72,315.0,15.36,12.09,47.59359,-54.27349
2024-01-07 04:54:00+00:00,309.0,13.11,309.0,15.28,12.09,47.59359,-54.27349
2024-01-07 05:04:00+00:00,308.0,14.09,303.0,20.17,12.09,47.59359,-54.27349
2024-01-07 05:14:00+00:00,315.0,13.7,319.0,17.2,12.09,47.59359,-54.27349
2024-01-07 05:24:00+00:00,309.0,11.85,307.0,14.71,12.09,47.59359,-54.27349
2024-01-07 05:34:00+00:00,306.0,10.76,312.0,13.71,12.09,47.59359,-54.27349
2024-01-07 05:44:00+00:00,306.0,12.48,310.0,15.4,12.09,47.59359,-54.27349
2024-01-07 05:54:00+00:00,307.0,15.66,304.0,18.89,12.09,47.59359,-54.27349
2024-01-07 06:04:00+00:00,312.0,11.4,314.0,13.55,12.09,47.59359,-54.27349
2024-01-07 06:14:00+00:00,302.0,12.33,309.0,15.17,12.09,47.59359,-54.27349
2024-01-07 06:24:00+00:00,298.0,12.57,296.0,15.16,12.09,47.59359,-54.27349
2024-01-07 06:34:00+00:00,315.0,12.25,319.0,15.63,12.09,47.59359,-54.27349
2024-01-07 06:44:00+00:00,308.0,10.0,307.0,12.02,12.09,47.59359,-54.27349
2024-01-07 06:54:00+00:00,299.0,13.51,291.0,17.58,12.09,47.59359,-54.27349
2024-01-07 07:04:00+00:00,303.0,12.34,303.0,13.94,12.09,47.59359,-54.27349
2024-01-07 07:14:00+00:00,305.0,13.77,312.0,23.03,12.09,47.59359,-54.27349
2024-01-07 07:24:00+00:00,306.0,15.34,305.0,18.09,12.09,47.59359,-54.27349
2024-01-07 07:34:00+00:00,302.0,15.09,302.0,20.45,12.09,47.59359,-54.27349
2024-01-07 07:44:00+00:00,306.0,13.52,311.0,16.67,12.09,47.59359,-54.27349
2024-01-07 07:54:00+00:00,310.0,13.84,313.0,17.28,12.09,47.59359,-54.27349
2024-01-07 08:04:00+00:00,301.0,13.56,291.0,16.16,12.09,47.59359,-54.27349
2024-01-07 08:14:00+00:00,301.0,14.16,289.0,15.96,12.01,47.59359,-54.27349
2024-01-07 08:24:00+00:00,306.0,14.38,307.0,16.36,12.01,47.59359,-54.27349
2024-01-07 08:34:00+00:00,307.0,14.39,310.0,17.27,12.01,47.59359,-54.27349
2024-01-07 08:44:00+00:00,298.0,13.68,296.0,17.09,12.01,47.59359,-54.27349
2024-01-07 08:54:00+00:00,298.0,11.31,294.0,13.07,12.01,47.59359,-54.27349
2024-01-07 09:04:00+00:00,305.0,11.69,320.0,14.72,12.01,47.59359,-54.27349
2024-01-07 09:14:00+00:00,310.0,12.52,308.0,15.55,12.01,47.59359,-54.27349
2024-01-07 09:24:00+00:00,300.0,13.74,296.0,17.74,12.01,47.59359,-54.27349
2024-01-07 09:34:00+00:00,292.0,13.48,302.0,16.66,12.01,47.59359,-54.27349
2024-01-07 09:44:00+00:00,309.0,13.93,295.0,17.75,12.01,47.59359,-54.27349
2024-01-07 09:54:00+00:00,298.0,13.12,300.0,15.8,12.01,47.59359,-54.27349
2024-01-07 10:04:00+00:00,296.0,15.54,300.0,19.27,12.01,47.59359,-54.27349
2024-01-07 11:14:00+00:00,306.0,18.58,303.0,22.28,11.93,47.59359,-54.27349
2024-01-07 11:24:00+00:00,304.0,19.22,308.0,22.36,11.93,47.59359,-54.27349
2024-01-07 11:34:00+00:00,306.0,17.09,306.0,21.46,11.93,47.59359,-54.27349
2024-01-07 11:44:00+00:00,305.0,18.79,290.0,21.79,11.93,47.59359,-54.27349
2024-01-07 11:54:00+00:00,309.0,17.55,312.0,21.84,11.93,47.59359,-54.27349
2024-01-07 12:04:00+00:00,302.0,19.62,305.0,24.04,11.93,47.59359,-54.27349
2024-01-07 12:14:00+00:00,309.0,16.86,305.0,20.66,14.0,47.59359,-54.27349
2024-01-07 12:24:00+00:00,306.0,18.48,306.0,22.88,14.0,47.59359,-54.27349
2024-01-07 12:34:00+00:00,307.0,15.15,306.0,19.52,14.0,47.59359,-54.27349
2024-01-07 12:44:00+00:00,301.0,15.11,313.0,20.48,14.0,47.59359,-54.27349
2024-01-07 12:54:00+00:00,295.0,17.47,297.0,21.38,14.0,47.59359,-54.27349
2024-01-07 13:04:00+00:00,298.0,17.14,301.0,20.79,14.0,47.59359,-54.27349
2024-01-07 13:14:00+00:00,311.0,15.59,310.0,21.02,13.68,47.59359,-54.27349
2024-01-07 13:24:00+00:00,300.0,15.65,296.0,19.01,13.68,47.59359,-54.27349
2024-01-07 13:34:00+00:00,304.0,17.22,306.0,20.79,13.68,47.59359,-54.27349
2024-01-07 13:44:00+00:00,298.0,17.82,289.0,24.22,13.68,47.59359,-54.27349
2024-01-07 13:54:00+00:00,299.0,16.94,304.0,21.08,13.68,47.59359,-54.27349
2024-01-07 14:04:00+00:00,300.0,15.18,307.0,19.91,13.68,47.59359,-54.27349
2024-01-07 14:14:00+00:00,297.0,15.76,295.0,19.79,14.0,47.59359,-54.27349
2024-01-07 14:24:00+00:00,304.0,17.1,311.0,21.45,14.0,47.59359,-54.27349
2024-01-07 14:34:00+00:00,304.0,13.56,299.0,16.8,14.0,47.59359,-54.27349
2024-01-07 14:44:00+00:00,304.0,14.51,305.0,17.31,14.0,47.59359,-54.27349
2024-01-07 14:54:00+00:00,303.0,16.94,308.0,20.21,14.0,47.59359,-54.27349
2024-01-07 15:04:00+00:00,296.0,15.99,304.0,18.82,14.0,47.59359,-54.27349
2024-01-07 15:14:00+00:00,288.0,16.88,285.0,22.72,13.68,47.59359,-54.27349
2024-01-07 15:24:00+00:00,294.0,16.34,301.0,18.8,13.68,47.59359,-54.27349
2024-01-07 15:34:00+00:00,297.0,14.38,300.0,16.61,13.68,47.59359,-54.27349
2024-01-07 15:44:00+00:00,295.0,16.02,304.0,18.49,13.68,47.59359,-54.27349
2024-01-07 15:54:00+00:00,298.0,14.48,290.0,17.23,13.68,47.59359,-54.27349
2024-01-07 16:04:00+00:00,304.0,16.42,298.0,20.61,13.68,47.59359,-54.27349
2024-01-07 16:14:00+00:00,304.0,14.76,315.0,18.64,13.68,47.59359,-54.27349
2024-01-07 16:24:00+00:00,300.0,18.65,294.0,20.92,13.68,47.59359,-54.27349
2024-01-07 16:34:00+00:00,302.0,18.6,294.0,21.7,13.68,47.59359,-54.27349
2024-01-07 16:44:00+00:00,307.0,15.98,305.0,19.16,13.68,47.59359,-54.27349
2024-01-07 16:54:00+00:00,303.0,13.73,304.0,18.32,13.68,47.59359,-54.27349
2024-01-07 17:04:00+00:00,303.0,15.5,302.0,20.18,13.68,47.59359,-54.27349
2024-01-07 17:14:00+00:00,308.0,12.88,309.0,16.77,13.84,47.59359,-54.27349
2024-01-07 17:24:00+00:00,313.0,13.99,315.0,19.04,13.84,47.59359,-54.27349
2024-01-07 17:34:00+00:00,304.0,12.82,301.0,16.3,13.84,47.59359,-54.27349
2024-01-07 17:44:00+00:00,301.0,15.25,296.0,21.53,13.84,47.59359,-54.27349
2024-01-07 17:54:00+00:00,301.0,16.39,297.0,21.69,13.84,47.59359,-54.27349
2024-01-07 18:04:00+00:00,304.0,15.49,309.0,18.0,13.84,47.59359,-54.27349
2024-01-07 18:14:00+00:00,302.0,15.25,308.0,17.56,13.68,47.59359,-54.27349
2024-01-07 18:24:00+00:00,305.0,13.9,300.0,16.82,13.68,47.59359,-54.27349
2024-01-07 18:34:00+00:00,301.0,14.64,307.0,17.24,13.68,47.59359,-54.27349
2024-01-07 18:44:00+00:00,308.0,12.6,310.0,18.06,13.68,47.59359,-54.27349
2024-01-07 18:54:00+00:00,305.0,13.68,304.0,17.66,13.68,47.59359,-54.27349
2024-01-07 19:04:00+00:00,310.0,10.16,295.0,15.14,13.68,47.59359,-54.27349
2024-01-07 19:14:00+00:00,316.0,7.9,310.0,10.82,14.16,47.59359,-54.27349
2024-01-07 19:24:00+00:00,319.0,9.99,319.0,12.45,14.16,47.59359,-54.27349
2024-01-07 19:34:00+00:00,315.0,7.77,299.0,14.52,14.16,47.59359,-54.27349
2024-01-07 19:44:00+00:00,317.0,6.15,330.0,9.73,14.16,47.59359,-54.27349
2024-01-07 19:54:00+00:00,316.0,5.7,329.0,8.29,14.16,47.59359,-54.27349
2024-01-07 20:04:00+00:00,318.0,5.85,324.0,7.67,14.16,47.59359,-54.27349
2024-01-07 20:14:00+00:00,304.0,4.67,299.0,6.78,12.73,47.59359,-54.27349
2024-01-07 20:24:00+00:00,298.0,4.13,295.0,6.71,12.73,47.59359,-54.27349
2024-01-07 20:34:00+00:00,310.0,5.68,314.0,6.38,12.73,47.59359,-54.27349
2024-01-07 20:44:00+00:00,299.0,8.89,293.0,15.26,12.73,47.59359,-54.27349
2024-01-07 20:54:00+00:00,307.0,7.09,298.0,9.65,12.73,47.59359,-54.27349
2024-01-07 21:04:00+00:00,290.0,7.52,288.0,9.32,12.73,47.59359,-54.27349
2024-01-07 22:14:00+00:00,319.0,8.72,311.0,10.87,12.33,47.59359,-54.27349
2024-01-07 22:24:00+00:00,316.0,9.77,306.0,12.64,12.33,47.59359,-54.27349
2024-01-07 22:34:00+00:00,318.0,8.03,345.0,10.17,12.33,47.59359,-54.27349
2024-01-07 22:44:00+00:00,320.0,10.65,322.0,13.19,12.33,47.59359,-54.27349
2024-01-07 22:54:00+00:00,321.0,9.16,330.0,12.22,12.33,47.59359,-54.27349
2024-01-07 23:04:00+00:00,314.0,9.41,311.0,10.93,12.33,47.59359,-54.27349
2024-01-07 23:14:01+00:00,323.0,8.58,324.0,10.79,12.33,47.59359,-54.27349
2024-01-07 23:24:01+00:00,322.0,7.96,324.0,10.44,12.33,47.59359,-54.27349
2024-01-07 23:34:01+00:00,331.0,6.57,329.0,8.98,12.33,47.59359,-54.27349
2024-01-07 23:44:01+00:00,340.0,7.35,334.0,9.67,12.33,47.59359,-54.27349
2024-01-07 23:54:01+00:00,320.0,8.76,313.0,11.03,12.33,47.59359,-54.27349
